Location: Boiro
(42.6475°N, 8.8834°W)
Time: 06:24:38
(UTC+01:00)

Vanguard 1 - Pass Details

Date: 02 December 2021
Orbit: 652 x 3830 km, 34.2° (Epoch: 21 January)

Event Time Altitude Azimuth Distance (km) Brightness Sun altitude
Rises 07:58:18 0° 282° (WNW) 7,629 - -8.9°
Exits shadow 08:02:33 - 278° (W) 6,704 13.7 -8.2°
Reaches altitude 10° 08:04:39 10° 275° (W) 6,235 13.5 -7.8°
Maximum altitude 08:19:26 33° 221° (SW) 3,420 12.7 -5.3°
Drops below altitude 10° 08:28:40 10° 162° (SSE) 3,863 13.8 -3.8°
Sets 08:31:35 0° 152° (SSE) 4,487 14.5 -3.3°
